Location: Remedello Sotto
(45.2500°N, 10.3667°E)
Time: 11:46:11
(UTC+00:00)

COSMOS 2455 - Pass Details

Date: 03 February 2023
Orbit: 898 x 911 km, 67.1° (Epoch: 21 March)

Event Time Altitude Azimuth Distance (km) Brightness Sun altitude
Rises 16:52:38 0° 231° (SW) 3,515 7.5 -4.9°
Reaches altitude 10° 16:55:14 10° 237° (WSW) 2,579 6.8 -5.3°
Maximum altitude 17:00:58 46° 310° (NW) 1,203 3.8 -6.3°
Drops below altitude 10° 17:06:46 10° 23° (NNE) 2,601 4.9 -7.2°
Sets 17:09:24 0° 30° (NNE) 3,548 5.5 -7.7°
